TimeCST,TemperatureF,Dew PointF,Humidity,Sea Level PressureIn,VisibilityMPH,Wind Direction,Wind SpeedMPH,Gust SpeedMPH,PrecipitationIn,Events,Conditions,WindDirDegrees,DateUTC
12:53 AM,35.1,28.0,76,30.18,10.0,Variable,4.6,-,N/A,,Overcast,0,2013-03-02 06:53:00
1:53 AM,35.1,27.0,72,30.18,10.0,North,4.6,-,N/A,,Overcast,350,2013-03-02 07:53:00
2:53 AM,35.1,27.0,72,30.18,10.0,NW,6.9,-,N/A,,Overcast,310,2013-03-02 08:53:00
3:53 AM,34.0,27.0,75,30.17,10.0,NNW,4.6,-,N/A,,Overcast,340,2013-03-02 09:53:00
4:53 AM,33.8,26.6,75,30.18,10.0,Variable,6.9,-,N/A,,Overcast,0,2013-03-02 10:53:00
5:53 AM,34.0,25.0,70,30.20,10.0,NNW,9.2,17.3,N/A,,Overcast,330,2013-03-02 11:53:00
6:07 AM,33.8,26.6,75,30.19,10.0,NNW,6.9,-,N/A,,Overcast,330,2013-03-02 12:07:00
6:53 AM,33.1,27.0,78,30.21,9.0,NNW,10.4,-,0.00,,Overcast,330,2013-03-02 12:53:00
7:53 AM,33.1,28.9,85,30.23,3.0,NW,6.9,-,0.00,Snow,Light Snow,320,2013-03-02 13:53:00
8:21 AM,33.8,28.4,81,30.23,4.0,NW,9.2,-,0.00,Snow,Light Snow,320,2013-03-02 14:21:00
8:53 AM,34.0,28.9,82,30.25,8.0,NNW,10.4,-,0.00,,Overcast,330,2013-03-02 14:53:00
9:29 AM,35.6,26.6,70,30.25,10.0,NNW,6.9,-,N/A,,Overcast,330,2013-03-02 15:29:00
9:53 AM,35.1,27.0,72,30.26,10.0,NNW,6.9,-,N/A,,Overcast,330,2013-03-02 15:53:00
10:13 AM,37.4,24.8,60,30.25,10.0,North,12.7,17.3,N/A,,Overcast,360,2013-03-02 16:13:00
10:53 AM,36.0,24.1,62,30.26,10.0,North,15.0,21.9,N/A,,Overcast,350,2013-03-02 16:53:00
11:53 AM,37.0,23.0,57,30.25,10.0,NW,8.1,18.4,N/A,,Overcast,320,2013-03-02 17:53:00
12:53 PM,37.9,21.0,51,30.22,10.0,NNW,11.5,18.4,N/A,,Overcast,330,2013-03-02 18:53:00
1:53 PM,37.0,21.9,54,30.22,10.0,North,11.5,20.7,N/A,,Overcast,350,2013-03-02 19:53:00
2:53 PM,36.0,23.0,59,30.22,10.0,NNW,10.4,17.3,N/A,,Overcast,330,2013-03-02 20:53:00
3:53 PM,36.0,21.0,55,30.23,10.0,North,10.4,20.7,N/A,,Overcast,350,2013-03-02 21:53:00
4:53 PM,35.1,21.9,59,30.25,10.0,NNW,11.5,19.6,N/A,,Overcast,330,2013-03-02 22:53:00
5:53 PM,35.1,21.9,59,30.26,10.0,NNW,12.7,18.4,N/A,,Overcast,330,2013-03-02 23:53:00
6:53 PM,33.8,21.2,60,30.27,10.0,NNW,9.2,17.3,N/A,,Overcast,340,2013-03-03 00:53:00
7:53 PM,33.1,21.9,64,30.28,10.0,NNW,6.9,-,N/A,,Overcast,340,2013-03-03 01:53:00
8:53 PM,32.0,21.9,66,30.28,10.0,North,4.6,-,N/A,,Overcast,350,2013-03-03 02:53:00
9:53 PM,28.0,23.0,81,30.28,10.0,NNE,4.6,-,N/A,,Clear,30,2013-03-03 03:53:00
10:53 PM,27.0,23.0,85,30.28,10.0,Calm,Calm,-,N/A,,Clear,0,2013-03-03 04:53:00
11:53 PM,26.1,21.9,84,30.28,10.0,North,3.5,-,N/A,,Clear,360,2013-03-03 05:53:00